DW2770 Cefalu IT current weather conditions

sailwx.info

Wind from 238 at 17 knots gusting 19

Air temperature 7.2° C
Dewpoint 1.3° C

Last reported at 2017-Jan-16 16:40 UTC.
Time now 2017-Jan-16 17:23 UTC

Location: N 38°02' E 014°02'.
View on Google Maps.

See reports from other nearby stations

  
Tides and Currents Weather Stations Pressure Air Temp Water Temp Dewpoint Dewpoint Depression Visibility Wind Speed Wind Dir Waves Ship Positions
date/time (UTC)wind fromknots sea level pressurealtimeterstation pressurevisibilityair tempwater tempwave heightnotes
2017-Jan-16 16:50 180 18 gusting 19 7.8
2017-Jan-16 16:40 238 17 gusting 19 7.2
2017-Jan-16 16:30 248 19 gusting 24 7.2
2017-Jan-16 16:20 202 15 gusting 15 6.7
2017-Jan-16 16:00 225 17 gusting 22 6.1
2017-Jan-16 15:50 221 19 gusting 19 7.2
2017-Jan-16 15:10 202 16 gusting 19 8.9
2017-Jan-16 15:00 212 15 gusting 21 8.9
2017-Jan-16 14:50 225 15 gusting 19 8.9
2017-Jan-16 14:40 215 12 gusting 19 8.3
2017-Jan-16 14:30 226 17 gusting 17 7.8
2017-Jan-16 14:20 225 11 gusting 19 6.7
2017-Jan-16 14:10 216 18 gusting 24 6.7
2017-Jan-16 14:00 271 18 gusting 24 8.9
2017-Jan-16 13:40 202 10 gusting 17 9.4
2017-Jan-16 13:30 248 11 gusting 17 9.4
2017-Jan-16 13:20 239 11 gusting 15 9.4
2017-Jan-16 13:10 215 13 gusting 15 9.4
2017-Jan-16 12:50 219 10 gusting 19 9.4
2017-Jan-16 12:40 246 13 gusting 17 10.0
2017-Jan-16 12:30 225 12 gusting 18 9.4
2017-Jan-16 12:20 230 14 gusting 17 8.9
2017-Jan-16 12:00 202 12 gusting 26 8.3
2017-Jan-16 11:50 202 19 gusting 26 8.9
2017-Jan-16 11:40 225 22 gusting 25 8.3
2017-Jan-16 11:10 202 14 gusting 21 8.3
2017-Jan-16 11:00 189 15 gusting 20 8.3
2017-Jan-16 10:50 225 13 gusting 18 8.3
2017-Jan-16 10:40 221 15 gusting 19 9.4
2017-Jan-16 10:20 225 14 gusting 25 8.3
2017-Jan-16 10:10 225 13 gusting 14 7.8
2017-Jan-16 10:00 225 13 gusting 15 8.3
2017-Jan-16 09:50 248 15 gusting 15 8.3
2017-Jan-16 09:20 234 13 gusting 17 9.4
2017-Jan-16 09:10 180 14 gusting 15 8.9
2017-Jan-16 08:40 202 13 gusting 21 8.3
2017-Jan-16 08:25 248 15 gusting 19 8.3
2017-Jan-16 08:10 239 18 gusting 19 8.9
2017-Jan-16 08:00 248 11 gusting 11 8.9
2017-Jan-16 07:50 201 10 gusting 13 8.9
2017-Jan-16 07:40 221 7 gusting 8 8.9
2017-Jan-16 07:30 225 4 gusting 11 8.3
2017-Jan-16 07:20 202 11 gusting 12 8.3
2017-Jan-16 07:10 225 4 gusting 8 8.3
2017-Jan-16 06:50 200 2 gusting 4 7.8
2017-Jan-16 06:40 180 2 gusting 5 7.8
2017-Jan-16 06:30 180 5 gusting 5 7.2
2017-Jan-16 06:20 202 2 gusting 4 7.2
2017-Jan-16 06:10 180 1 gusting 6 7.8
2017-Jan-16 05:50 202 5 gusting 5 7.8
2017-Jan-16 05:40 202 5 gusting 13 7.8
2017-Jan-16 05:30 225 6 gusting 14 7.8
2017-Jan-16 05:20 219 8 gusting 11 7.2
2017-Jan-16 05:10 184 7 gusting 11 6.7
2017-Jan-16 05:00 202 3 gusting 4 5.6
2017-Jan-16 04:50 247 5.6
2017-Jan-16 04:40 186 3 gusting 4 5.6
2017-Jan-16 04:30 090 0 gusting 1 5.6
2017-Jan-16 04:20 5.6
2017-Jan-16 04:00 202 0 gusting 1 5.6
2017-Jan-16 03:50 135 0 gusting 7 6.1
2017-Jan-16 03:40 202 5 gusting 7 6.1
2017-Jan-16 03:00 202 12 gusting 14 5.0
2017-Jan-16 02:50 158 13 gusting 18 5.6
2017-Jan-16 02:40 228 17 gusting 18 6.1
2017-Jan-16 02:30 248 13 gusting 18 6.7
2017-Jan-16 02:20 225 13 gusting 15 6.7
2017-Jan-16 02:00 202 11 gusting 13 6.7
2017-Jan-16 01:50 225 8 gusting 10 6.7
2017-Jan-16 01:40 241 0 gusting 7 6.7
2017-Jan-16 01:30 225 6 gusting 13 7.2
2017-Jan-16 01:20 202 8 gusting 8 6.7
2017-Jan-16 01:00 248 6 gusting 11 8.3
2017-Jan-16 00:50 225 12 gusting 15 8.3
2017-Jan-16 00:40 221 5 gusting 12 8.3
2017-Jan-16 00:30 225 7 gusting 7 8.3
2017-Jan-16 00:20 225 7 gusting 7 8.3
2017-Jan-16 00:10 213 2 gusting 8 8.3
2017-Jan-16 00:00 202 7 gusting 17 8.9
2017-Jan-15 23:55 248 17 gusting 17 8.9
2017-Jan-15 23:30 270 7 gusting 13 8.9
2017-Jan-15 23:20 225 9 gusting 17 9.4
2017-Jan-15 22:40 202 11 gusting 14 8.9
2017-Jan-15 22:30 225 14 gusting 19 8.9
2017-Jan-15 22:00 225 14 gusting 20 8.9
2017-Jan-15 21:50 248 6 gusting 15 8.9
2017-Jan-15 21:30 180 14 gusting 18 9.4
2017-Jan-15 21:20 202 13 gusting 18 9.4
2017-Jan-15 21:10 247 14 gusting 17 9.4
2017-Jan-15 21:00 202 12 gusting 19 10.0
2017-Jan-15 20:50 248 15 gusting 19 10.0
2017-Jan-15 20:40 248 10 gusting 13 10.0
2017-Jan-15 20:30 195 13 gusting 19 10.6
2017-Jan-15 20:20 225 17 gusting 26 10.6
2017-Jan-15 20:10 210 12 gusting 15 10.0
2017-Jan-15 20:00 202 15 gusting 20 10.0
2017-Jan-15 19:50 212 13 gusting 18 9.4
2017-Jan-15 19:40 248 13 gusting 19 9.4
2017-Jan-15 19:20 225 13 gusting 14 9.4
2017-Jan-15 19:10 248 14 gusting 21 9.4
2017-Jan-15 19:00 225 15 gusting 21 9.4
2017-Jan-15 18:50 219 13 gusting 15 8.9
2017-Jan-15 18:40 202 14 gusting 17 8.9
2017-Jan-15 18:30 204 17 gusting 17 9.4
2017-Jan-15 18:20 202 17 gusting 19 9.4
2017-Jan-15 18:10 225 19 gusting 19 9.4
2017-Jan-15 18:00 245 14 gusting 17 8.9
2017-Jan-15 17:50 225 19 gusting 25 8.3
2017-Jan-15 17:30 225 12 gusting 19 8.3
2017-Jan-15 17:20 202 19 gusting 19 8.3
2017-Jan-15 17:10 199 15 gusting 17 7.8
2017-Jan-15 17:00 180 11 gusting 20 7.2
2017-Jan-15 16:50 211 16 gusting 20 5.6
2017-Jan-15 16:40 210 17 gusting 26 5.6
2017-Jan-15 16:30 221 18 gusting 26 6.7
2017-Jan-15 16:10 202 15 gusting 19 9.4
2017-Jan-15 16:00 225 17 gusting 18 9.4
2017-Jan-15 15:40 207 12 gusting 22 9.4
2017-Jan-15 15:20 222 13 gusting 14 10.0
2017-Jan-15 15:10 225 5 gusting 10 9.4
2017-Jan-15 15:00 225 8 gusting 15 8.9
2017-Jan-15 14:50 202 15 gusting 17 8.9
2017-Jan-15 14:00 270 12 gusting 17 10.0
2017-Jan-15 13:30 216 3 gusting 25 11.1
2017-Jan-15 13:20 225 5 gusting 13 11.1
2017-Jan-15 13:00 233 12 gusting 13 10.0
2017-Jan-15 12:40 315 3 gusting 4 10.0
2017-Jan-15 12:30 132 1 gusting 11 9.4
2017-Jan-15 12:20 202 7 gusting 11 9.4
2017-Jan-15 12:00 228 8 gusting 8 9.4
2017-Jan-15 11:40 225 12 gusting 12 9.4
2017-Jan-15 11:30 248 10.0
2017-Jan-15 11:00 132 10.0
2017-Jan-15 10:50 245 4 gusting 7 10.0
2017-Jan-15 10:40 180 5 gusting 7 10.6
2017-Jan-15 10:30 036 10.6
2017-Jan-15 10:20 202 1 gusting 7 10.0
2017-Jan-15 10:10 225 10.0
2017-Jan-15 09:40 022 0 gusting 1 9.4
2017-Jan-15 09:30 047 8.9
2017-Jan-15 09:20 279 0 gusting 2 8.3
2017-Jan-15 09:10 068 8.3
2017-Jan-15 09:00 211 0 gusting 4 8.3
2017-Jan-15 08:50 225 7.8
2017-Jan-15 08:40 202 1 gusting 10 7.8
2017-Jan-15 08:30 187 2 gusting 2 7.2
2017-Jan-15 08:20 180 2 gusting 6 7.8
2017-Jan-15 08:10 225 4 gusting 7 7.2
2017-Jan-15 08:00 223 4 gusting 7 7.2
2017-Jan-15 07:50 270 1 gusting 6 7.8
2017-Jan-15 07:30 210 3 gusting 8 7.8
2017-Jan-15 07:20 202 5 gusting 11 8.3
2017-Jan-15 07:00 207 9 gusting 19 8.3
2017-Jan-15 06:50 202 14 gusting 19 8.9
2017-Jan-15 06:40 182 8 gusting 19 8.3
2017-Jan-15 06:30 234 12 gusting 15 8.3
2017-Jan-15 06:20 180 11 gusting 13 8.3
2017-Jan-15 06:10 225 13 gusting 13 8.3
2017-Jan-15 05:40 248 9 gusting 13 10.0
2017-Jan-15 05:30 207 10 gusting 13 10.0
2017-Jan-15 05:20 202 8 gusting 11 10.0
2017-Jan-15 05:00 225 13 gusting 14 10.0
2017-Jan-15 04:40 202 8 gusting 12 9.4
2017-Jan-15 04:30 231 6 gusting 10 10.0
2017-Jan-15 04:20 202 5 gusting 11 10.0
2017-Jan-15 04:10 227 6 gusting 11 10.0
2017-Jan-15 04:00 202 6 gusting 6 10.0
2017-Jan-15 03:40 202 6 gusting 10 9.4
2017-Jan-15 03:30 225 6 gusting 6 9.4
2017-Jan-15 03:20 202 4 gusting 13 9.4
2017-Jan-15 03:00 187 13 gusting 13 9.4
2017-Jan-15 02:50 225 10 gusting 12 9.4
2017-Jan-15 02:40 202 11 gusting 13 9.4
2017-Jan-15 02:20 225 11 gusting 13 9.4
2017-Jan-15 02:10 225 12 gusting 18 10.0
2017-Jan-15 02:00 212 15 gusting 15 10.0
2017-Jan-15 01:50 202 13 gusting 14 10.0
2017-Jan-15 01:30 202 11 gusting 13 10.0
2017-Jan-15 01:10 202 10 gusting 13 9.4
2017-Jan-15 01:00 202 13 gusting 13 10.0
2017-Jan-15 00:50 248 8 gusting 13 10.0
2017-Jan-15 00:30 248 9 gusting 13 10.0
2017-Jan-15 00:10 180 6 gusting 14 10.0
2017-Jan-15 00:00 225 11 gusting 11 10.0
2017-Jan-14 23:50 202 6 gusting 11 10.0
2017-Jan-14 23:30 158 6 gusting 10 9.4
2017-Jan-14 23:10 180 8 gusting 13 9.4
2017-Jan-14 23:00 202 11 gusting 12 9.4
2017-Jan-14 22:50 202 7 gusting 8 9.4
2017-Jan-14 22:40 224 2 gusting 2 8.9
2017-Jan-14 22:30 202 2 gusting 2 8.9
2017-Jan-14 22:20 177 1 gusting 4 8.3
2017-Jan-14 22:10 225 2 gusting 5 7.8
2017-Jan-14 22:00 202 5 gusting 5 8.3
2017-Jan-14 21:50 180 8.3
2017-Jan-14 21:40 117 8.3
2017-Jan-14 21:30 068 8.3
2017-Jan-14 21:20 060 8.9
2017-Jan-14 21:10 175 2 gusting 4 8.9
2017-Jan-14 21:00 112 1 gusting 2 8.3
2017-Jan-14 20:50 045 8.3
2017-Jan-14 20:40 004 8.3
2017-Jan-14 20:30 248 8.3
2017-Jan-14 20:20 176 0 gusting 2 8.9
2017-Jan-14 20:10 167 2 gusting 5 8.9
2017-Jan-14 20:00 225 5 gusting 10 8.9
2017-Jan-14 19:50 202 7 gusting 7 8.9
2017-Jan-14 19:40 239 6 gusting 10 8.9
2017-Jan-14 19:30 202 5 gusting 7 8.3
2017-Jan-14 19:20 202 7 gusting 7 7.8
2017-Jan-14 19:00 180 4 gusting 4 8.3
2017-Jan-14 18:50 181 1 gusting 1 8.3
2017-Jan-14 18:20 181 1 gusting 1 8.3
2017-Jan-14 18:00 181 1 gusting 1 8.3
2017-Jan-14 17:50 181 1 gusting 1 8.3
2017-Jan-14 17:40 181 1 gusting 1 8.3
2017-Jan-14 17:20 181 1 gusting 1 8.3
2017-Jan-14 17:00 180 1 gusting 1 8.3